Flag for Guernsey Weather past 2 weeks in St. Peter Port, Guernsey

Now
54 °F

Sunny.


Feels Like: 52 °F
Forecast: 53 / 61 °F
Wind: 6 mph from North

Location: Guernsey Airport

Current Time: May 26, 2015 at 7:58:30 AM

Latest Report: May 26, 2015 at 7:20 AM


Visibility: 10 mi

Pressure: 30.24 "Hg

Humidity: 94%

Dew point: 52 °F

Location of St. Peter PortLocation

Historic Weather in St. Peter Port — Graph

°F

St. Peter Port temperature yesterday

Maximum temperature yesterday: 59 °F (at 2:50 PM)
Minimum temperature yesterday: 50 °F (at 3:50 AM)
Average temperature yesterday: 55 °F

Past Weeks' High & Low Weather Summary

 TemperatureHumidityPressure
High64 °F (May 23, 12:50 PM)100% (May 11, 7:50 AM)30.42 "Hg (May 11, 7:50 AM)
Low45 °F (May 13, 3:50 AM)63% (May 12, 1:50 PM)29.77 "Hg (May 14, 7:20 AM)
Average53 °F85%30.15 "Hg
* Reported May 11 6:20 AM — May 26 6:50 AM, St. Peter Port, Weather by CustomWeather, © 2015

Note: Actual official high and low records may vary slightly from our data, if they occured in-between our weather recording intervals... More about our weather records

Advertising

St. Peter Port weather history for previous 24 hours

 ConditionsComfort  
Time TempWeatherWind HumidityBarometerVisibility
6:50 AM
Tue, May 26
54 °FPassing clouds.5 mph94%30.24 "HgN/A
6:20 AM52 °FSunny.7 mph94%30.21 "Hg10 mi
5:50 AM52 °FClear.8 mph94%30.21 "Hg10 mi
5:20 AM50 °FClear.9 mph100%30.21 "Hg10 mi
4:50 AM50 °FClear.8 mph100%30.21 "Hg10 mi
4:20 AM50 °FClear.6 mph100%30.21 "Hg10 mi
3:50 AM50 °FClear.7 mph100%30.21 "Hg10 mi
8:50 PM
Mon, May 25
54 °FPartly sunny.10 mph94%30.15 "HgN/A
8:20 PM54 °FPartly sunny.9 mph94%30.15 "HgN/A
7:50 PM54 °FPartly sunny.7 mph94%30.15 "HgN/A
7:20 PM54 °FPartly sunny.9 mph94%30.15 "HgN/A
6:50 PM55 °FBroken clouds.10 mph88%30.15 "HgN/A
6:20 PM55 °FBroken clouds.13 mph88%30.15 "HgN/A
5:50 PM55 °FPartly sunny.13 mph88%30.15 "HgN/A
5:20 PM55 °FPartly sunny.14 mph82%30.15 "HgN/A
4:50 PM57 °FPartly sunny.14 mph82%30.15 "HgN/A
4:20 PM57 °FPartly sunny.14 mph82%30.15 "HgN/A
3:50 PM57 °FPartly sunny.13 mph82%30.15 "HgN/A
3:20 PM57 °FScattered clouds.12 mph82%30.15 "HgN/A
2:50 PM59 °FBroken clouds.13 mph77%30.15 "HgN/A
2:20 PM57 °FScattered clouds.12 mph82%30.18 "HgN/A
1:50 PM57 °FPartly sunny.12 mph82%30.15 "HgN/A
1:20 PM57 °FScattered clouds.9 mph77%30.15 "HgN/A
12:50 PM57 °FScattered clouds.9 mph72%30.18 "HgN/A
12:20 PM57 °FPassing clouds.9 mph77%30.18 "HgN/A
11:50 AM55 °FPassing clouds.8 mph82%30.18 "HgN/A
11:20 AM57 °FPassing clouds.9 mph77%30.18 "HgN/A
10:50 AM55 °FPassing clouds.8 mph77%30.18 "HgN/A
10:20 AM57 °FPassing clouds.8 mph77%30.18 "HgN/A
9:50 AM55 °FPassing clouds.9 mph82%30.18 "HgN/A
9:20 AM55 °FPassing clouds.9 mph77%30.18 "HgN/A
8:50 AM54 °FScattered clouds.8 mph88%30.18 "HgN/A
8:20 AM54 °FPartly sunny.9 mph88%30.18 "HgN/A
7:50 AM52 °FPartly sunny.10 mph94%30.15 "HgN/A
7:20 AM52 °FScattered clouds.12 mph94%30.15 "HgN/A
Weather by CustomWeather, © 2015

See weather overviewHow to use our weather pages